DELTA 1 DEB, 10346

Orbit data source: Space-Track

DELTA 1 DEB, 10346 is space debris in LEO originally from a launch on Thu, 14 Jul 1977 UTC launched from the Air Force Eastern Test Range (AFETR). Debris objects in space refer to the collection of defunct objects orbiting the Earth. Examples of debris include non-operational satellites, rocket bodies, and fragments generated from explosions, collisions, or faulty payload assembly.

Loading next visibility...
Identifier
10346, 1977-065DV
Orbit
LEO
Country
Flag of USUS
Related business
Manufacturer
Unknown
Mission
Spacecraft
Bus & Motor
Unknown
Mass
Unknown
Launch date (UTC)
1977-07-14 (49 years ago)
Launch vehicle
Unknown
Launch site
Air Force Eastern Test Range (AFETR)
Object type
Payload
Rocket body
Debris
Shape & HBR
Unknown shape, 0.1 m
Radar Cross Section
Medium (>0.1 m² and <1 m²)

Expand to show TLE details & history
Last TLE update: 23 hours ago

TLE from 23 hours ago
0 DELTA 1 DEB
1 10346U 77065DV  26132.66254383  .00001440  00000-0  61317-3 0  9990
2 10346  29.2221 247.4656 0696616 208.6148 147.4421 13.36766188331987
Epoch: 2026-05-12T15:54Z
TLE epoch observation values (Epoch: 2026-05-12T15:54:03.786Z)
Latitude
-0.00002°
Longitude
138.5161°
Altitude
1,569.678 km
Speed
6.87 km/s
True Right ascension
16h 29m 51s
True Declination
0° 00' 00"
Sunlit
Object was in full shadow at epoch
Visualization orbit readout
Latitude
Unknown
Longitude
Unknown
Altitude
Unknown
Speed
Unknown
Apparent Right ascension
Unknown
Apparent Declination
Unknown
Sunlit
N/A
Visualization observer readout
Local Sidereal Time
23:28:45
Azimuth
Unknown
Elevation
Unknown
Doppler factor
Unknown
Orbital elements
Apogee altitude
1,647.848 km
Perigee altitude
602.465 km
Semi-major axis
7,503.294 km
Eccentricity
0.06966
Inclination
29.2221°
RAAN
247.4656°
Arg. of periapsis
208.6148°
True anomaly
151.4403°
Mean anomaly
147.4421°
Eccentric anomaly
149.46967°
Mean motion
3.33938 °/min
Orbital period
107.8 mins
BSTAR
0.00061317
Loading maneuver chart data...
Computing Atmospheric mass density...
Loading historical data...
Loading historical data...
Loading historical data...
Loading historical data...
Loading historical data...
Loading historical data...
Loading historical data...

Documentation

Showing up to 5 results
|